User: anonymous   Login
Location: Columbia
(38.9520°N, 92.3340°W)
Time: 20:27:30
(UTC-05:00)
Language:

CZ-2C R/B - Orbit

View from above orbital plane
View from above orbital plane
View from above satellite
View from above satellite

Ground track
Ground track

The orbit data is extracted from the following two-line orbital elements,

1 28480U 04046B   15110.41008475  .00000208  00000-0  94434-4 0  9991
2 28480 098.1308 248.4667 0142928 033.9250 040.1182 14.25487026541856
Epoch (UTC): 20 April 2015 09:50:31
Eccentricity: 0.0142928
inclination: 98.1308°
perigee height: 704 km
apogee height: 909 km
right ascension of ascending node: 248.4667°
argument of perigee: 33.9250°
revolutions per day: 14.25487026
mean anomaly at epoch: 40.1182°
orbit number at epoch: 54185

The dashed part of the orbit path shows where the satellite is in the earth's shadow,  

DLR